Regional Weather Roundup
Issued by NWS

Home | Current Version | Previous Version | Graphics & Text | Print | Product List | Glossary On
Versions: 1 2 3 4 5 6 7 8 9 10 11 12 13 14 15 16 17 18 19 20 21 22 23 24 25 26 27 28 29 30 31 32 33 34 35 36 37 38 39 40 41 42 43 44 45 46 47 48 49 50
000
ASUS43 KOAX 291610
RWRNE

WEATHER ROUNDUP FOR NEBRASKA
NATIONAL WEATHER SERVICE OMAHA NE
1100 AM CDT THU SEP 29 2016

NOTES: SATELLITE DATA IS BEING USED TO AUGMENT CLOUD COVER ABOVE
       12000 FEET.
       "FAIR" INDICATES FEW OR NO CLOUDS BELOW 12,000 FEET WITH NO
       SIGNIFICANT WEATHER AND/OR OBSTRUCTIONS TO VISIBILITY.

  * THESE STATIONS DO NOT REPORT WEATHER SUCH AS RAIN...SNOW OR FOG.

NEZ001>004-019>022-054>056-291700-
NEBRASKA PANHANDLE

CITY           SKY/WX    TMP DP  RH WIND       PRES   REMARKS
SCOTTSBLUFF    SUNNY     60  43  53 E12       30.34F
ALLIANCE       SUNNY     63  42  46 S13       30.36F
CHADRON        SUNNY     67  43  41 S13       30.32S
KIMBALL        SUNNY     63  45  52 S14       30.37F
SIDNEY         SUNNY     64  42  44 S15       30.39S
$$

NEZ057>060-069>072-079>082-291700-
SOUTHWEST NEBRASKA

CITY           SKY/WX    TMP DP  RH WIND       PRES   REMARKS
NORTH PLATTE   SUNNY     59  45  59 SE7       30.44S
IMPERIAL       SUNNY     62  42  47 SE16      30.41F
LEXINGTON      SUNNY     59  45  60 SE5       30.46S
MCCOOK         SUNNY     59  45  59 E6        30.44F
OGALLALA       SUNNY    N/A N/A N/A S12G17    30.41S
$$

NEZ005>010-023>029-035>040-094-291700-
NORTH CENTRAL NEBRASKA

CITY           SKY/WX    TMP DP  RH WIND       PRES   REMARKS
VALENTINE      SUNNY     62  41  46 S14       30.41F
AINSWORTH      SUNNY     60  46  59 S12       30.44S
BROKEN BOW     SUNNY     58  46  64 S6        30.45F
O`NEILL        SUNNY     58  46  63 S8        30.47F
ORD            SUNNY     57  45  64 SE3       30.46F
THEDFORD       SUNNY     62  44  52 S12       30.44S
$$

NEZ041-046>049-061>064-073>077-083>087-291700-
SOUTH CENTRAL NEBRASKA

CITY           SKY/WX    TMP DP  RH WIND       PRES   REMARKS
GRAND ISLAND   SUNNY     58  46  64 VRB3      30.48S
AURORA         SUNNY     58  49  72 CALM      30.47S
HASTINGS       SUNNY     58  46  64 SE5       30.48S
HEBRON         SUNNY     59  49  69 CALM      30.46S
HOLDREGE       SUNNY     58  45  60 CALM      30.46F
KEARNEY *      SUNNY     57  45  62 CALM      30.46F
YORK           SUNNY     59  48  67 NW3       30.47S
$$

NEZ011>018-030>034-042>045-291700-
NORTHEAST NEBRASKA

CITY           SKY/WX    TMP DP  RH WIND       PRES   REMARKS
NORFOLK        SUNNY     59  47  64 CALM      30.47S
ALBION         SUNNY     58  48  69 S3        30.47S
BLAIR          SUNNY     58  52  79 NW3       30.45S
FREMONT        SUNNY     58  51  76 CALM      30.46F
TEKAMAH        SUNNY     59  50  72 VRB3      30.46S
WAYNE          SUNNY     58  51  76 CALM      30.48S
$$

NEZ050>053-065>068-078-088>093-291700-
SOUTHEAST NEBRASKA

CITY           SKY/WX    TMP DP  RH WIND       PRES   REMARKS
LINCOLN        SUNNY     61  51  70 VRB3      30.47S
OMAHA EPPLEY   SUNNY     60  51  72 NW5       30.45S
BEATRICE       SUNNY     61  52  70 N5        30.45R
FALLS CITY     SUNNY     62  53  72 NW7       30.42S
NEBRASKA CITY  SUNNY     60  49  66 CALM      30.44S
PLATTSMOUTH    SUNNY     59  49  68 NW3       30.45R
$$

NEZ044-045-051>053-067-291700-
OMAHA AREA

CITY           SKY/WX    TMP DP  RH WIND       PRES   REMARKS
OMAHA EPPLEY   SUNNY     60  51  72 NW5       30.45S
BLAIR          SUNNY     58  52  79 NW3       30.45S
FREMONT        SUNNY     58  51  76 CALM      30.46F
MILLARD        SUNNY     59  51  75 CALM      30.45S
OFFUTT AFB     SUNNY     59  52  77 NW6       30.44R
PLATTSMOUTH    SUNNY     59  49  68 NW3       30.45R
WAHOO          FAIR      59  51  73 CALM      30.46S
$$



USA.gov is the U.S. government's official web portal to all federal, state and local government web resources and services.